STARLINK-37203

Last updated on Sun Apr 12 2026 00:02:09 GMT+0000 (Coordinated Universal Time)

1 68388U 26063J 26101.55660765 .00149592 00000+0 76632-3 0 9996 2 68388 97.2832 242.9307 0001112 121.4958 238.6419 15.80875545 2810
UTC large
Height (km)
Speed (km/s)
/
Latitude / Longitude
Inclination (degrees)
Orbital Period (minutes)
Azimuth
Elevation
Range (km)
Doppler Factor

Next 0 passes for location: London (51.5072 / 0.1276)

Sorry there are no passes over London.
STARLINK-37203